[[{"header":{"parameterUnit":"m.s-1","parameterCategory":1,"la1":30.2991,"la2":30.254,"lo1":-89.0895,"lo2":-89.0444,"dy":0.0017,"dx":0.0017,"nx":28,"ny":28,"refTime":"2024-04-27T03:00:00:Z","depth":0,"parameterNumber":2,"parameterNumberName":"U-component_of_WINDS"},"data":[0,0,0,0,0,0,0,0,0,0,0,0,0,0,0,0,0,0,0,0,0,0,0,0,0,0,0,0,0,0,0,0,0,0,0,0,0,0,0,0,0,0,0,0,0,0,0,0,0,0,0,0,0,0,0,0,0,0,-4.6181,-4.6182,0,-4.6233,-4.6234,-4.6234,-4.6207,-4.6205,-4.6204,-4.6202,-4.6253,-4.6256,-4.6259,0,0,0,0,0,0,0,0,0,0,0,0,0,-4.6057,-4.6059,-4.6181,-4.6182,-4.6182,-4.6233,-4.6234,-4.6235,-4.6207,-4.6205,-4.6203,-4.6202,-4.6253,-4.6256,-4.6259,0,0,0,0,0,0,0,0,0,0,0,0,0,-4.611,-4.606,-4.6181,-4.6175,-4.6175,-4.6233,-4.6234,-4.6235,-4.6207,-4.6205,-4.6203,-4.6201,-4.6251,-4.6255,-4.6259,-4.6326,0,0,-4.6271,-4.6273,0,0,0,0,0,0,0,0,-4.6107,-4.6114,-4.6175,-4.6175,-4.6175,-4.6211,-4.6209,-4.6265,-4.6208,-4.6195,-4.6202,-4.62,-4.6241,-4.6246,-4.626,-4.6328,-4.6331,-4.6272,-4.6274,-4.6276,-4.6277,0,0,0,0,0,0,0,-4.6103,-4.6112,-4.6202,-4.6176,-4.6176,-4.6169,-4.6174,-4.6219,-4.6229,-4.6196,-4.6194,-4.6201,-4.6241,-4.6256,-4.6261,-4.6331,-4.6272,-4.6275,-4.6278,-4.6279,-4.6458,-4.646,0,0,0,0,0,0,-4.61,-4.6109,-4.62,-4.6203,-4.6135,-4.6173,-4.6179,-4.6202,-4.6228,-4.623,-4.6202,-4.6199,-4.625,-4.6256,-4.6263,-4.6342,-4.6276,-4.628,-4.6282,-4.6455,-4.6458,-4.6461,0,0,0,0,0,0,-4.6098,-4.6109,-4.6198,-4.6156,-4.6167,-4.6177,-4.6203,-4.6204,-4.6219,-4.6233,-4.6235,-4.6216,-4.6249,-4.6257,-4.6311,-4.6344,-4.6281,-4.6285,-4.6453,-4.6456,-4.646,-4.6502,0,0,0,0,0,0,-4.6094,-4.6108,-4.6133,-4.6157,-4.6169,-4.6245,-4.6206,-4.6207,-4.6227,-4.6223,-4.6247,-4.6249,-4.6248,-4.6305,-4.6315,-4.6348,-4.6288,-4.645,-4.6454,-4.6458,-4.6498,-4.6507,-4.6514,0,0,0,0,0,-4.609,-4.6142,-4.6135,-4.6146,-4.6201,-4.6247,-4.6254,-4.6253,-4.623,-4.6255,-4.6264,-4.6248,-4.6339,-4.6311,-4.6321,-4.6356,-4.6448,-4.6453,-4.6458,-4.6494,-4.6505,-4.6514,0,0,0,0,0,0,-4.6121,-4.6145,-4.6137,-4.6199,-4.6222,-4.6243,-4.6274,-4.6264,-4.6293,-4.6288,-4.6285,-4.6291,-4.6346,-4.6357,-4.6325,-4.6423,-4.639,-4.6397,-4.6413,-4.6424,-4.6432,-4.6427,-4.6292,0,0,0,0,0,-4.6136,-4.6172,-4.6191,-4.6244,-4.6256,-4.6264,-4.6283,-4.6281,-4.6304,-4.6313,-4.6326,-4.6348,-4.6382,-4.6404,-4.6435,-4.65,-4.6505,-4.653,-4.6538,-4.6545,-4.6551,-4.6586,-4.6597,-4.6478,-4.6478,-4.6478,0,0,-4.6165,-4.6183,-4.6206,-4.625,-4.6268,-4.6305,-4.6271,-4.6312,-4.6339,-4.6318,-4.637,-4.6381,-4.6406,-4.6465,-4.6492,-4.6476,-4.6585,-4.6552,-4.6557,-4.6559,-4.6593,-4.6604,-4.6614,-4.6482,-4.6481,-4.6481,0,0,-4.6238,-4.6255,-4.6301,-4.632,-4.6347,-4.6352,-4.6363,-4.6387,-4.6393,-4.6445,-4.6431,-4.6464,-4.6522,-4.654,-4.6557,-4.6639,-4.6625,-4.665,-4.6692,-4.6726,-4.6736,-4.6744,-4.6773,-4.6783,-4.6656,-4.6656,-4.6656,0,-4.627,-4.6326,-4.6326,-4.6368,-4.6388,-4.6373,-4.6419,-4.6437,-4.6473,-4.6487,-4.6469,-4.6542,-4.6558,-4.6622,-4.6642,-4.6657,-4.6669,-4.6646,-4.6735,-4.6743,-4.6751,-4.6778,-4.6789,-4.6659,-4.6659,-4.6658,-4.6658,0,-4.6365,-4.6404,-4.6438,-4.6474,-4.6498,-4.6542,-4.6548,-4.6573,-4.6569,-4.6576,-4.663,-4.6649,-4.6684,-4.67,-4.6696,-4.6764,-4.6753,-4.6735,-4.6701,-4.6765,-4.679,-4.6801,-4.6663,-4.6662,-4.6661,-4.666,0,0,-4.6456,-4.6493,-4.6505,-4.6522,-4.6552,-4.6582,-4.6626,-4.6662,-4.6683,-4.6709,-4.6745,-4.6796,-4.678,-4.6799,-4.6797,-4.6828,-4.6892,-4.6806,-4.6807,-4.6821,-4.6967,-4.6979,-4.6991,-4.6884,-4.6886,-4.6887,-4.6965,0,-4.6529,-4.6606,-4.6608,-4.6679,-4.6715,-4.6702,-4.6741,-4.6763,-4.6772,-4.6803,-4.6813,-4.6849,-4.6825,-4.6837,-4.6867,-4.6877,-4.6921,-4.6872,-4.6916,-4.6918,-4.6909,-4.7005,-4.7017,-4.7089,-4.6975,-4.6977,-4.6978,0,-4.6625,-4.6655,-4.6729,-4.6755,-4.677,-4.6805,-4.6838,-4.6869,-4.6895,-4.6899,-4.6922,-4.6916,-4.6961,-4.6928,-4.6989,-4.6956,-4.6975,-4.6983,-4.6986,-4.6988,-4.695,-4.7008,-4.7112,-4.7123,-4.6994,-4.6992,-4.6991,0,-4.6683,-4.6742,-4.6794,-4.6809,-4.684,-4.6865,-4.6879,-4.6903,-4.6925,-4.6954,-4.6968,-4.7003,-4.7021,-4.7048,-4.7052,-4.7027,-4.7113,-4.708,-4.7117,-4.7117,-4.7134,-4.7132,-4.7241,-4.7149,-4.7149,-4.7149,-4.7148,0,-4.6763,-4.6809,-4.6821,-4.6852,-4.6903,-4.6906,-4.6956,-4.6969,-4.699,-4.7024,-4.7016,-4.7048,-4.7052,-4.7085,-4.7088,-4.7139,-4.7147,-4.7151,-4.7151,-4.7151,-4.7151,-4.7162,-4.7156,-4.7151,-4.7151,-4.715,-4.715,0,-4.6835,-4.6845,-4.6901,-4.6927,-4.6935,-4.6971,-4.6994,-4.7024,-4.7033,-4.7076,-4.7087,-4.71,-4.7139,-4.7146,-4.7192,-4.7194,-4.7254,-4.7249,-4.7245,-4.7244,-4.728,-4.7276,-4.7398,-4.7414,-4.7313,-4.7314,-4.7315,0,-4.6886,-4.6921,-4.6951,-4.6974,-4.699,-4.7026,-4.7049,-4.7053,-4.7077,-4.711,-4.7137,-4.7175,-4.7205,-4.7268,-4.7282,-4.7317,-4.7312,-4.7353,-4.7317,-4.7316,-4.7312,-4.7309,-4.7312,-4.7359,-4.736,-4.7361,-4.7362,0,-4.6973,-4.6977,-4.701,-4.7046,-4.7074,-4.7102,-4.7128,-4.7147,-4.7155,-4.7183,-4.7223,-4.7247,-4.7294,-4.7332,-4.7367,-4.7382,-4.7373,-4.7373,-4.7383,-4.7382,-4.7378,-4.738,-4.7262,-4.737,-4.7369,-4.7368,-4.7368,-4.7367,-4.7035,-4.7066,-4.7093,-4.713,-4.7151,-4.7177,-4.7207,-4.722,-4.7254,-4.7293,-4.7294,-4.7338,-4.7364,-4.7411,-4.7428,-4.7462,-4.7449,-4.7464,-4.7467,-4.7471,-4.7474,-4.7374,-4.7468,-4.7468,-4.7468,-4.7468,-4.7468,0,-4.7122,-4.7139,-4.7174,-4.7212,-4.7242,-4.7233,-4.7262,-4.7287,-4.7326,-4.7352,-4.7383,-4.7429,-4.7466,-4.7484,-4.7521,-4.7545,-4.7542,-4.7554,-4.7551,-4.7555,-4.7483,-4.747,-4.7556,-4.7556,-4.7556,-4.7556,-4.7556,-4.7556,-4.717,-4.7221,-4.7229,-4.7291,-4.7307,-4.7351,-4.7368,-4.7392,-4.7412,-4.7465,-4.7496,-4.7508,-4.753,-4.7569,-4.7603,-4.7607,-4.762,-4.7634,-4.7637,-4.7569,-4.756,-4.7551,-4.7539,-4.7638,-4.7638,-4.7705,-4.7706,-4.7706]},{"header":{"parameterUnit":"m.s-1","parameterCategory":1,"la1":30.2991,"la2":30.254,"lo1":-89.0895,"lo2":-89.0444,"dy":0.0017,"dx":0.0017,"nx":28,"ny":28,"refTime":"2024-04-27T03:00:00:Z","depth":0,"parameterNumber":3,"parameterNumberName":"V-component_of_WINDS"},"data":[0,0,0,0,0,0,0,0,0,0,0,0,0,0,0,0,0,0,0,0,0,0,0,0,0,0,0,0,0,0,0,0,0,0,0,0,0,0,0,0,0,0,0,0,0,0,0,0,0,0,0,0,0,0,0,0,0,0,4.0369,4.0369,0,4.0367,4.0366,4.0366,4.0341,4.0341,4.034,4.0339,4.0334,4.0334,4.0335,0,0,0,0,0,0,0,0,0,0,0,0,0,4.0349,4.035,4.0369,4.0369,4.0369,4.0367,4.0366,4.0366,4.0341,4.0341,4.034,4.0339,4.0334,4.0334,4.0335,0,0,0,0,0,0,0,0,0,0,0,0,0,4.0353,4.035,4.0369,4.0356,4.0355,4.0367,4.0366,4.0366,4.0341,4.0341,4.034,4.0339,4.0334,4.0334,4.0335,4.0358,0,0,4.0337,4.0337,0,0,0,0,0,0,0,0,4.0353,4.0354,4.0358,4.0357,4.0356,4.0353,4.0358,4.0363,4.0342,4.0346,4.0339,4.0338,4.0341,4.0341,4.0342,4.0358,4.0357,4.0337,4.0337,4.0338,4.0338,0,0,0,0,0,0,0,4.0353,4.0354,4.0368,4.0358,4.0356,4.035,4.0349,4.0359,4.0349,4.0346,4.0344,4.0344,4.034,4.0342,4.0342,4.0357,4.0337,4.0338,4.0338,4.0338,4.0393,4.0394,0,0,0,0,0,0,4.0355,4.0354,4.0368,4.0368,4.0352,4.0351,4.035,4.0355,4.0349,4.0347,4.0345,4.0343,4.0341,4.0341,4.0342,4.0369,4.0338,4.0338,4.0339,4.0392,4.0393,4.0394,0,0,0,0,0,0,4.0354,4.0356,4.0368,4.036,4.0361,4.0352,4.0357,4.0355,4.0357,4.0348,4.0346,4.0349,4.0341,4.0341,4.0355,4.0369,4.0339,4.0339,4.039,4.0392,4.0394,4.0423,0,0,0,0,0,0,4.0354,4.0356,4.0365,4.0361,4.0362,4.0381,4.0358,4.0356,4.0359,4.0356,4.0351,4.0349,4.034,4.0354,4.0355,4.0369,4.034,4.0389,4.0391,4.0393,4.0421,4.0426,4.043,0,0,0,0,0,4.0353,4.0372,4.0366,4.0367,4.0373,4.0382,4.0382,4.0372,4.036,4.0369,4.0363,4.035,4.0367,4.0355,4.0357,4.0371,4.0388,4.0391,4.0393,4.0419,4.0425,4.043,0,0,0,0,0,0,4.0377,4.0371,4.0364,4.0382,4.0383,4.0378,4.0388,4.0378,4.0381,4.0379,4.0365,4.0364,4.038,4.0377,4.0364,4.0394,4.0375,4.0378,4.0395,4.04,4.0404,4.0404,4.034,0,0,0,0,0,4.0384,4.0393,4.0388,4.0404,4.0405,4.0397,4.04,4.0393,4.0392,4.0392,4.0388,4.0387,4.0393,4.0396,4.0401,4.0421,4.042,4.0432,4.0436,4.044,4.0442,4.0453,4.0459,4.0402,4.0402,4.0402,0,0,4.0399,4.0398,4.0403,4.0409,4.0409,4.0418,4.0397,4.0407,4.0413,4.0393,4.0406,4.0403,4.0402,4.0419,4.0427,4.0417,4.0458,4.0443,4.0445,4.0446,4.0456,4.0462,4.0466,4.0403,4.0403,4.0403,0,0,4.0431,4.0431,4.0445,4.0446,4.0447,4.0442,4.0445,4.0442,4.044,4.0453,4.0439,4.0446,4.0455,4.0456,4.0457,4.0492,4.048,4.0494,4.0516,4.0528,4.0532,4.0536,4.0549,4.0554,4.0496,4.0496,4.0496,0,4.0449,4.0463,4.0454,4.0466,4.0469,4.0453,4.0468,4.0468,4.047,4.0472,4.0462,4.0475,4.0473,4.0491,4.05,4.0501,4.0505,4.0494,4.0532,4.0536,4.054,4.0552,4.0557,4.0498,4.0498,4.0498,4.0498,0,4.0486,4.0496,4.0507,4.0511,4.0516,4.0529,4.0521,4.0527,4.052,4.0516,4.053,4.0527,4.0532,4.0536,4.0527,4.0553,4.0547,4.0535,4.0516,4.0547,4.0558,4.0563,4.0501,4.05,4.0499,4.0499,0,0,4.053,4.0531,4.0535,4.0538,4.0538,4.0546,4.0558,4.0564,4.057,4.0572,4.0582,4.0592,4.0582,4.0583,4.0575,4.0585,4.0614,4.0572,4.0572,4.058,4.0643,4.0652,4.0657,4.0607,4.0608,4.0608,4.0643,0,4.0561,4.0584,4.0577,4.06,4.061,4.0596,4.0607,4.0609,4.0606,4.0613,4.0609,4.0617,4.0602,4.0604,4.0613,4.0609,4.0627,4.0606,4.0616,4.0616,4.0616,4.0663,4.0672,4.0705,4.0647,4.0648,4.0649,0,4.06,4.0606,4.063,4.0632,4.0635,4.0646,4.0651,4.0659,4.0661,4.0658,4.0661,4.0652,4.0664,4.0647,4.0664,4.065,4.0654,4.0653,4.0654,4.0654,4.0634,4.0664,4.0715,4.072,4.0655,4.0655,4.0654,0,4.0631,4.0645,4.0661,4.0664,4.0665,4.0673,4.0674,4.0675,4.068,4.0685,4.0688,4.0693,4.0696,4.0701,4.0694,4.0681,4.0712,4.0694,4.071,4.071,4.0716,4.0715,4.0768,4.0719,4.0719,4.0719,4.0719,0,4.0666,4.0681,4.0675,4.0686,4.0703,4.0695,4.0712,4.0711,4.0713,4.0723,4.0711,4.072,4.071,4.0718,4.0712,4.0728,4.0729,4.0727,4.0725,4.0728,4.0728,4.073,4.0727,4.072,4.072,4.072,4.0719,0,4.0702,4.0699,4.0716,4.0717,4.0718,4.0731,4.0731,4.0741,4.0738,4.0751,4.0753,4.0748,4.0758,4.0751,4.076,4.0756,4.0777,4.0771,4.0776,4.0775,4.0791,4.079,4.0846,4.0853,4.08,4.0801,4.0801,0,4.0724,4.0736,4.074,4.0746,4.0748,4.0759,4.0764,4.0758,4.0763,4.0768,4.0777,4.0786,4.0792,4.0808,4.0804,4.0811,4.0806,4.0826,4.0807,4.081,4.0807,4.0806,4.0808,4.0829,4.083,4.083,4.0831,0,4.0765,4.0763,4.0772,4.0781,4.0789,4.0795,4.08,4.0806,4.08,4.0807,4.0817,4.0823,4.0833,4.0842,4.0848,4.0848,4.0838,4.0837,4.0841,4.0843,4.0846,4.0845,4.0786,4.0835,4.0835,4.0834,4.0834,4.0834,4.0795,4.0805,4.081,4.0821,4.0825,4.0831,4.084,4.084,4.0849,4.0858,4.0853,4.0866,4.0868,4.0876,4.0878,4.0887,4.0879,4.0885,4.0886,4.0888,4.089,4.0845,4.0888,4.0888,4.0888,4.0888,4.0888,0,4.0835,4.0838,4.0848,4.0857,4.0866,4.0858,4.0864,4.0872,4.0883,4.0887,4.0895,4.0908,4.0917,4.0915,4.0924,4.0931,4.0927,4.0934,4.0933,4.0933,4.0897,4.0893,4.0937,4.0937,4.0937,4.0937,4.0937,4.0937,4.0856,4.0875,4.0874,4.0894,4.0897,4.091,4.0915,4.092,4.0924,4.0939,4.0947,4.0947,4.0949,4.0958,4.0966,4.0965,4.0969,4.0977,4.0975,4.094,4.0935,4.0931,4.0927,4.0978,4.0978,4.101,4.101,4.1011]}]]